Location: Unspecified
(52.4292°N, 19.3359°E)
Time: 23:55:34
(UTC+02:00)

Altair - Pass Details

Date: 19 May 2024
Orbit: 1502 x 1682 km, 47.2° (Epoch: 19 June)

Event Time Altitude Azimuth Distance (km) Brightness Sun altitude
Rises 11:26:43 0° 217° (SW) 4,835 10.3 54.6°
Reaches altitude 10° 11:30:03 10° 210° (SSW) 3,873 10.0 54.8°
Maximum altitude 11:39:00 40° 146° (SE) 2,312 10.3 55.4°
Drops below altitude 10° 11:48:05 10° 82° (E) 3,949 9.9 56.0°
Sets 11:51:31 0° 75° (ENE) 4,938 10.2 56.2°
